| time (UTC) | temp F | wind direction | speed MPH | gust MPH | rain 1hr in | rain 24hr in | rain mn in | humidity % | barometer mb |
| 20260507171746 | 89 | 8 | 4.0 | 8.0 | 0.00 | 0.00 | 0.00 | 70 | 1012.3 |
| 20260507171243 | 88 | 349 | 6.0 | 8.0 | 0.00 | 0.00 | 0.00 | 71 | 1012.7 |
| 20260507170740 | 88 | 301 | 4.0 | 7.0 | 0.00 | 0.00 | 0.00 | 71 | 1012.8 |
| 20260507170237 | 87 | 67 | 4.0 | 6.0 | 0.00 | 0.00 | 0.00 | 73 | 1012.7 |
| 20260507165733 | 89 | 224 | 4.0 | 7.0 | 0.00 | 0.00 | 0.00 | 72 | 1012.8 |
| 20260507165229 | 88 | 280 | 2.0 | 2.0 | 0.00 | 0.00 | 0.00 | 73 | 1012.8 |
| 20260507164725 | 88 | 350 | 6.0 | 8.0 | 0.00 | 0.00 | 0.00 | 70 | 1012.7 |
| 20260507164223 | 88 | 346 | 2.0 | 4.0 | 0.00 | 0.00 | 0.00 | 71 | 1012.8 |
| 20260507163720 | 88 | 337 | 3.0 | 7.0 | 0.00 | 0.00 | 0.00 | 72 | 1012.9 |
| 20260507163218 | 87 | 350 | 3.0 | 4.0 | 0.00 | 0.00 | 0.00 | 73 | 1012.6 |
| 20260507162713 | 87 | 353 | 4.0 | 6.0 | 0.00 | 0.00 | 0.00 | 73 | 1012.6 |
| 20260507162209 | 88 | 97 | 7.0 | 8.0 | 0.00 | 0.00 | 0.00 | 72 | 1012.6 |
| 20260507161706 | 88 | 200 | 2.0 | 3.0 | 0.00 | 0.00 | 0.00 | 74 | 1012.7 |
| 20260507161203 | 88 | 132 | 4.0 | 4.0 | 0.00 | 0.00 | 0.00 | 73 | 1012.7 |
| 20260507160658 | 88 | 324 | 4.0 | 4.0 | 0.00 | 0.00 | 0.00 | 74 | 1012.7 |
| 20260507160155 | 88 | 298 | 2.0 | 4.0 | 0.00 | 0.00 | 0.00 | 74 | 1012.7 |
| 20260507155651 | 87 | 92 | 4.0 | 6.0 | 0.00 | 0.00 | 0.00 | 76 | 1012.8 |
| 20260507155148 | 87 | 319 | 6.0 | 7.0 | 0.00 | 0.00 | 0.00 | 76 | 1012.7 |
| 20260507154644 | 87 | 310 | 6.0 | 8.0 | 0.00 | 0.00 | 0.00 | 76 | 1012.8 |
| 20260507154142 | 87 | 309 | 5.0 | 7.0 | 0.00 | 0.00 | 0.00 | 77 | 1012.9 |
| 20260507153638 | 87 | 322 | 4.0 | 4.0 | 0.00 | 0.00 | 0.00 | 76 | 1012.8 |
| 20260507153135 | 87 | 173 | 4.0 | 4.0 | 0.00 | 0.00 | 0.00 | 76 | 1012.8 |
| 20260507152631 | 87 | 272 | 4.0 | 6.0 | 0.00 | 0.00 | 0.00 | 76 | 1012.6 |
| 20260507152127 | 87 | 274 | 4.0 | 7.0 | 0.00 | 0.00 | 0.00 | 77 | 1012.7 |
| 20260507151623 | 87 | 308 | 2.0 | 2.0 | 0.00 | 0.00 | 0.00 | 77 | 1012.8 |
| 20260507151120 | 87 | 166 | 4.0 | 6.0 | 0.00 | 0.00 | 0.00 | 78 | 1012.7 |
| 20260507150618 | 87 | 346 | 3.0 | 6.0 | 0.00 | 0.00 | 0.00 | 77 | 1012.7 |
| 20260507150114 | 87 | 355 | 3.0 | 6.0 | 0.00 | 0.00 | 0.00 | 76 | 1012.8 |
| 20260507145614 | 87 | 338 | 9.0 | 9.0 | 0.00 | 0.00 | 0.00 | 76 | 1012.7 |
| 20260507145113 | 87 | 327 | 4.0 | 8.0 | 0.00 | 0.00 | 0.00 | 77 | 1012.6 |
| 20260507144608 | 87 | 330 | 5.0 | 8.0 | 0.00 | 0.00 | 0.00 | 77 | 1012.6 |
| 20260507144107 | 86 | 318 | 7.0 | 9.0 | 0.00 | 0.00 | 0.00 | 78 | 1012.6 |
| 20260507143603 | 86 | 12 | 4.0 | 7.0 | 0.00 | 0.00 | 0.00 | 77 | 1012.7 |
| 20260507143101 | 86 | 356 | 7.0 | 8.0 | 0.00 | 0.00 | 0.00 | 78 | 1012.6 |
| 20260507142601 | 86 | 316 | 4.0 | 6.0 | 0.00 | 0.00 | 0.00 | 78 | 1012.7 |
| 20260507142058 | 86 | 280 | 6.0 | 8.0 | 0.00 | 0.00 | 0.00 | 77 | 1012.6 |
| 20260507141554 | 86 | 28 | 5.0 | 7.0 | 0.00 | 0.00 | 0.00 | 78 | 1012.6 |
| 20260507141051 | 86 | 317 | 5.0 | 6.0 | 0.00 | 0.00 | 0.00 | 77 | 1012.6 |
| 20260507140548 | 86 | 12 | 1.0 | 2.0 | 0.00 | 0.00 | 0.00 | 78 | 1012.6 |
| 20260507140045 | 86 | 335 | 8.0 | 9.0 | 0.00 | 0.00 | 0.00 | 77 | 1012.6 |
| 20260507135542 | 85 | 320 | 5.0 | 7.0 | 0.00 | 0.00 | 0.00 | 78 | 1012.5 |
| 20260507135039 | 85 | 45 | 4.0 | 7.0 | 0.00 | 0.00 | 0.00 | 78 | 1012.3 |
| 20260507134536 | 85 | 288 | 6.0 | 8.0 | 0.00 | 0.00 | 0.00 | 78 | 1012.3 |
| 20260507134031 | 86 | 36 | 5.0 | 7.0 | 0.00 | 0.00 | 0.00 | 78 | 1012.3 |
| 20260507133528 | 85 | 17 | 4.0 | 7.0 | 0.00 | 0.00 | 0.00 | 78 | 1012.2 |
| 20260507133026 | 85 | 280 | 6.0 | 8.0 | 0.00 | 0.00 | 0.00 | 78 | 1012.3 |
| 20260507132522 | 85 | 335 | 4.0 | 8.0 | 0.00 | 0.00 | 0.00 | 79 | 1012.1 |
| 20260507132019 | 85 | 306 | 3.0 | 6.0 | 0.00 | 0.00 | 0.00 | 80 | 1012.1 |
| 20260507131516 | 85 | 351 | 7.0 | 9.0 | 0.00 | 0.00 | 0.00 | 80 | 1012.2 |
| 20260507131013 | 85 | 300 | 6.0 | 9.0 | 0.00 | 0.00 | 0.00 | 80 | 1012.2 |
| 20260507130510 | 84 | 359 | 4.0 | 8.0 | 0.00 | 0.00 | 0.00 | 80 | 1012.0 |
| 20260507130008 | 84 | 323 | 8.0 | 9.0 | 0.00 | 0.00 | 0.00 | 81 | 1012.0 |
| 20260507125506 | 84 | 305 | 4.0 | 6.0 | 0.00 | 0.00 | 0.00 | 81 | 1012.0 |
| 20260507125003 | 84 | 272 | 5.0 | 8.0 | 0.00 | 0.00 | 0.00 | 81 | 1012.0 |
| 20260507124459 | 84 | 102 | 4.0 | 6.0 | 0.00 | 0.00 | 0.00 | 81 | 1012.0 |
| 20260507123957 | 84 | 291 | 5.0 | 8.0 | 0.00 | 0.00 | 0.00 | 82 | 1012.0 |
| 20260507123455 | 83 | 309 | 6.0 | 8.0 | 0.00 | 0.00 | 0.00 | 83 | 1011.8 |
| 20260507122951 | 83 | 254 | 4.0 | 7.0 | 0.00 | 0.00 | 0.00 | 83 | 1011.7 |
| 20260507122447 | 83 | 73 | 2.0 | 3.0 | 0.00 | 0.00 | 0.00 | 83 | 1011.8 |
| 20260507121943 | 83 | 8 | 2.0 | 4.0 | 0.00 | 0.00 | 0.00 | 83 | 1011.6 |
| 20260507121438 | 83 | 290 | 3.0 | 6.0 | 0.00 | 0.00 | 0.00 | 84 | 1011.7 |
| 20260507120935 | 82 | 55 | 3.0 | 6.0 | 0.00 | 0.00 | 0.00 | 84 | 1011.5 |
| 20260507120431 | 82 | 338 | 4.0 | 6.0 | 0.00 | 0.00 | 0.00 | 84 | 1011.6 |
| 20260507115928 | 82 | 326 | 2.0 | 2.0 | 0.00 | 0.00 | 0.00 | 84 | 1011.7 |
| 20260507115424 | 82 | 326 | 6.0 | 8.0 | 0.00 | 0.00 | 0.00 | 84 | 1011.7 |
| 20260507114920 | 82 | 35 | 3.0 | 3.0 | 0.00 | 0.00 | 0.00 | 85 | 1011.6 |
| 20260507114417 | 82 | 349 | 2.0 | 2.0 | 0.00 | 0.00 | 0.00 | 85 | 1011.6 |
| 20260507113914 | 82 | 322 | 4.0 | 4.0 | 0.00 | 0.00 | 0.00 | 85 | 1011.6 |
| 20260507113411 | 82 | 319 | 5.0 | 6.0 | 0.00 | 0.00 | 0.00 | 85 | 1011.6 |
| 20260507112908 | 82 | 322 | 6.0 | 8.0 | 0.00 | 0.00 | 0.00 | 85 | 1011.5 |
| 20260507112406 | 82 | 289 | 3.0 | 3.0 | 0.00 | 0.00 | 0.00 | 85 | 1011.3 |
| 20260507111904 | 82 | 327 | 5.0 | 6.0 | 0.00 | 0.00 | 0.00 | 85 | 1011.1 |
| 20260507111400 | 82 | 2 | 5.0 | 7.0 | 0.00 | 0.00 | 0.00 | 86 | 1011.1 |
| 20260507110856 | 82 | 319 | 6.0 | 8.0 | 0.00 | 0.00 | 0.00 | 86 | 1011.1 |
| 20260507110352 | 82 | 350 | 3.0 | 4.0 | 0.00 | 0.00 | 0.00 | 85 | 1011.2 |
| 20260507105849 | 82 | 326 | 5.0 | 7.0 | 0.00 | 0.00 | 0.00 | 85 | 1011.0 |
| 20260507105346 | 82 | 286 | 1.0 | 1.0 | 0.00 | 0.00 | 0.00 | 86 | 1011.0 |
| 20260507104842 | 82 | 45 | 2.0 | 3.0 | 0.00 | 0.00 | 0.00 | 86 | 1010.9 |
| 20260507104339 | 82 | 335 | 4.0 | 6.0 | 0.00 | 0.00 | 0.00 | 86 | 1010.8 |
| 20260507103835 | 82 | 301 | 3.0 | 6.0 | 0.00 | 0.00 | 0.00 | 86 | 1010.8 |
| 20260507103332 | 82 | 148 | 2.0 | 2.0 | 0.00 | 0.00 | 0.00 | 86 | 1010.9 |
| 20260507102828 | 82 | 232 | 2.0 | 4.0 | 0.00 | 0.00 | 0.00 | 85 | 1010.6 |
| 20260507102325 | 82 | 279 | 2.0 | 2.0 | 0.00 | 0.00 | 0.00 | 85 | 1010.6 |
| 20260507101822 | 82 | 270 | 1.0 | 3.0 | 0.00 | 0.00 | 0.00 | 85 | 1010.7 |
| 20260507101322 | 82 | 60 | 1.0 | 2.0 | 0.00 | 0.00 | 0.00 | 85 | 1010.5 |
| 20260507100819 | 82 | 327 | 6.0 | 7.0 | 0.00 | 0.00 | 0.00 | 85 | 1010.4 |
| 20260507100317 | 82 | 289 | 3.0 | 4.0 | 0.00 | 0.00 | 0.00 | 85 | 1010.7 |
| 20260507095815 | 82 | 321 | 5.0 | 7.0 | 0.00 | 0.00 | 0.00 | 85 | 1010.5 |
| 20260507095311 | 82 | 50 | 5.0 | 7.0 | 0.00 | 0.00 | 0.00 | 85 | 1010.4 |
| 20260507094808 | 82 | 260 | 7.0 | 10.0 | 0.00 | 0.00 | 0.00 | 85 | 1010.5 |
| 20260507094305 | 82 | 283 | 2.0 | 4.0 | 0.00 | 0.00 | 0.00 | 86 | 1010.3 |
| 20260507093802 | 82 | 330 | 5.0 | 8.0 | 0.00 | 0.00 | 0.00 | 86 | 1010.4 |
| 20260507093300 | 82 | 4 | 6.0 | 9.0 | 0.00 | 0.00 | 0.00 | 86 | 1010.6 |
| 20260507092758 | 82 | 320 | 6.0 | 8.0 | 0.00 | 0.00 | 0.00 | 86 | 1010.5 |
| 20260507092254 | 82 | 347 | 7.0 | 9.0 | 0.00 | 0.00 | 0.00 | 86 | 1010.5 |
| 20260507091750 | 82 | 19 | 3.0 | 6.0 | 0.00 | 0.00 | 0.00 | 86 | 1010.4 |
| 20260507091247 | 82 | 17 | 3.0 | 3.0 | 0.00 | 0.00 | 0.00 | 86 | 1010.4 |
| 20260507090747 | 82 | 131 | 2.0 | 3.0 | 0.00 | 0.00 | 0.00 | 86 | 1010.3 |
| 20260507090244 | 82 | 13 | 2.0 | 2.0 | 0.00 | 0.00 | 0.00 | 86 | 1010.3 |
| 20260507085741 | 82 | 86 | 4.0 | 6.0 | 0.00 | 0.00 | 0.00 | 86 | 1010.3 |
| 20260507085238 | 82 | 358 | 5.0 | 8.0 | 0.00 | 0.00 | 0.00 | 87 | 1010.4 |
| 20260507084735 | 82 | 308 | 3.0 | 4.0 | 0.00 | 0.00 | 0.00 | 87 | 1010.3 |
| 20260507084232 | 82 | 71 | 2.0 | 4.0 | 0.00 | 0.00 | 0.00 | 87 | 1010.6 |
| 20260507083730 | 82 | 328 | 3.0 | 4.0 | 0.00 | 0.00 | 0.00 | 87 | 1010.5 |
| 20260507083226 | 82 | 222 | 3.0 | 3.0 | 0.00 | 0.00 | 0.00 | 87 | 1010.5 |
| 20260507082722 | 82 | 6 | 4.0 | 6.0 | 0.00 | 0.00 | 0.00 | 87 | 1010.5 |
| 20260507082218 | 82 | 44 | 4.0 | 6.0 | 0.00 | 0.00 | 0.00 | 87 | 1010.3 |
| 20260507081715 | 82 | 316 | 5.0 | 9.0 | 0.00 | 0.00 | 0.00 | 87 | 1010.4 |
| 20260507081211 | 82 | 73 | 4.0 | 6.0 | 0.00 | 0.00 | 0.00 | 87 | 1010.6 |
| 20260507080708 | 82 | 353 | 4.0 | 7.0 | 0.00 | 0.00 | 0.00 | 87 | 1010.7 |
| 20260507080204 | 82 | 303 | 4.0 | 7.0 | 0.00 | 0.00 | 0.00 | 87 | 1010.7 |
| 20260507075659 | 82 | 151 | 4.0 | 7.0 | 0.00 | 0.00 | 0.00 | 87 | 1010.7 |
| 20260507075156 | 82 | 244 | 5.0 | 7.0 | 0.00 | 0.00 | 0.00 | 87 | 1010.9 |
| 20260507074652 | 82 | 302 | 5.0 | 6.0 | 0.00 | 0.00 | 0.00 | 87 | 1010.7 |
| 20260507074151 | 82 | 327 | 4.0 | 6.0 | 0.00 | 0.00 | 0.00 | 87 | 1010.9 |
| 20260507073647 | 82 | 252 | 3.0 | 4.0 | 0.00 | 0.00 | 0.00 | 87 | 1010.9 |
| 20260507073143 | 82 | 34 | 2.0 | 3.0 | 0.00 | 0.00 | 0.00 | 86 | 1010.7 |
| 20260507072641 | 82 | 333 | 2.0 | 4.0 | 0.00 | 0.00 | 0.00 | 86 | 1010.7 |
| 20260507072138 | 82 | 288 | 2.0 | 3.0 | 0.00 | 0.00 | 0.00 | 86 | 1010.8 |
| 20260507071636 | 82 | 348 | 7.0 | 14.0 | 0.00 | 0.00 | 0.00 | 86 | 1011.0 |
| 20260507071132 | 82 | 43 | 6.0 | 10.0 | 0.00 | 0.00 | 0.00 | 86 | 1010.8 |
| 20260507070629 | 82 | 298 | 6.0 | 7.0 | 0.00 | 0.00 | 0.00 | 86 | 1011.1 |
| 20260507070126 | 82 | 76 | 4.0 | 6.0 | 0.00 | 0.00 | 0.00 | 87 | 1010.9 |
| 20260507065622 | 82 | 119 | 3.0 | 6.0 | 0.00 | 0.00 | 0.00 | 87 | 1011.0 |
| 20260507065119 | 82 | 254 | 1.0 | 1.0 | 0.00 | 0.00 | 0.00 | 87 | 1011.1 |
| 20260507064617 | 82 | 37 | 8.0 | 10.0 | 0.00 | 0.00 | 0.00 | 87 | 1011.1 |
| 20260507064115 | 82 | 239 | 1.0 | 1.0 | 0.00 | 0.00 | 0.00 | 87 | 1011.2 |
| 20260507063612 | 82 | 296 | 3.0 | 4.0 | 0.00 | 0.00 | 0.00 | 87 | 1011.2 |
| 20260507063109 | 82 | 308 | 2.0 | 4.0 | 0.00 | 0.00 | 0.00 | 87 | 1011.2 |
| 20260507062606 | 82 | 139 | 4.0 | 4.0 | 0.00 | 0.00 | 0.00 | 87 | 1011.4 |
| 20260507062104 | 82 | 359 | 6.0 | 10.0 | 0.00 | 0.00 | 0.00 | 87 | 1011.3 |
| 20260507061601 | 82 | 75 | 2.0 | 2.0 | 0.00 | 0.00 | 0.00 | 87 | 1011.5 |
| 20260507061059 | 82 | 1 | 6.0 | 8.0 | 0.00 | 0.00 | 0.00 | 87 | 1011.4 |
| 20260507060557 | 82 | 81 | 2.0 | 3.0 | 0.00 | 0.00 | 0.00 | 88 | 1011.5 |
| 20260507060053 | 82 | 111 | 1.0 | 2.0 | 0.00 | 0.00 | 0.00 | 88 | 1011.6 |
| 20260507055548 | 82 | 41 | 3.0 | 4.0 | 0.00 | 0.00 | 0.00 | 87 | 1011.7 |
| 20260507055045 | 82 | 65 | 6.0 | 8.0 | 0.00 | 0.00 | 0.00 | 87 | 1011.8 |
| 20260507054541 | 82 | 73 | 4.0 | 9.0 | 0.00 | 0.00 | 0.00 | 87 | 1011.8 |
| 20260507054037 | 82 | 287 | 4.0 | 4.0 | 0.00 | 0.00 | 0.00 | 87 | 1011.6 |
| 20260507053536 | 82 | 38 | 9.0 | 14.0 | 0.00 | 0.00 | 0.00 | 86 | 1012.0 |
| 20260507053034 | 82 | 31 | 4.0 | 7.0 | 0.00 | 0.00 | 0.00 | 86 | 1012.0 |
| 20260507052532 | 83 | 52 | 4.0 | 6.0 | 0.00 | 0.00 | 0.00 | 86 | 1011.9 |
| 20260507052028 | 83 | 284 | 2.0 | 3.0 | 0.00 | 0.00 | 0.00 | 85 | 1012.2 |
| 20260507051526 | 83 | 223 | 4.0 | 6.0 | 0.00 | 0.00 | 0.00 | 85 | 1012.3 |
| 20260507051022 | 83 | 187 | 1.0 | 2.0 | 0.00 | 0.00 | 0.00 | 85 | 1012.3 |
| 20260507050519 | 83 | 98 | 3.0 | 4.0 | 0.00 | 0.00 | 0.00 | 85 | 1012.5 |
| 20260507050016 | 83 | 231 | 3.0 | 6.0 | 0.00 | 0.00 | 0.00 | 84 | 1012.7 |
| 20260507045512 | 83 | 134 | 1.0 | 1.0 | 0.00 | 0.00 | 0.00 | 84 | 1012.5 |
| 20260507045010 | 83 | 276 | 3.0 | 6.0 | 0.00 | 0.00 | 0.00 | 84 | 1012.5 |
| 20260507044506 | 83 | 60 | 5.0 | 8.0 | 0.00 | 0.00 | 0.00 | 84 | 1012.7 |
| 20260507044002 | 83 | 341 | 3.0 | 6.0 | 0.00 | 0.00 | 0.00 | 84 | 1012.5 |
| 20260507043459 | 83 | 313 | 7.0 | 8.0 | 0.00 | 0.00 | 0.00 | 84 | 1012.8 |
| 20260507042955 | 83 | 3 | 2.0 | 4.0 | 0.00 | 0.00 | 0.00 | 84 | 1012.7 |
| 20260507042452 | 83 | 342 | 5.0 | 8.0 | 0.00 | 0.00 | 0.00 | 84 | 1012.8 |
| 20260507041948 | 83 | 223 | 2.0 | 3.0 | 0.00 | 0.00 | 0.00 | 84 | 1012.9 |
| 20260507041445 | 83 | 135 | 2.0 | 3.0 | 0.00 | 0.00 | 0.00 | 84 | 1012.8 |
| 20260507040942 | 83 | 81 | 4.0 | 6.0 | 0.00 | 0.00 | 0.00 | 83 | 1013.0 |
| 20260507040437 | 83 | 230 | 1.0 | 2.0 | 0.00 | 0.00 | 0.00 | 84 | 1012.8 |
| 20260507035934 | 83 | 269 | 6.0 | 8.0 | 0.00 | 0.00 | 0.00 | 84 | 1013.0 |
| 20260507035430 | 83 | 310 | 2.0 | 2.0 | 0.00 | 0.00 | 0.00 | 85 | 1012.9 |
| 20260507034927 | 83 | 286 | 2.0 | 2.0 | 0.00 | 0.00 | 0.00 | 86 | 1012.7 |
| 20260507034424 | 83 | 292 | 4.0 | 6.0 | 0.00 | 0.00 | 0.00 | 86 | 1013.0 |
| 20260507033922 | 83 | 251 | 1.0 | 2.0 | 0.00 | 0.00 | 0.00 | 87 | 1013.0 |
| 20260507033420 | 83 | 52 | 7.0 | 10.0 | 0.00 | 0.00 | 0.00 | 87 | 1013.1 |
| 20260507032916 | 83 | 8 | 2.0 | 2.0 | 0.00 | 0.00 | 0.00 | 87 | 1013.1 |
| 20260507032414 | 83 | 216 | 1.0 | 1.0 | 0.00 | 0.00 | 0.00 | 87 | 1012.7 |
| 20260507031909 | 83 | 107 | 2.0 | 3.0 | 0.00 | 0.00 | 0.00 | 87 | 1012.8 |
| 20260507031406 | 83 | 217 | 1.0 | 3.0 | 0.00 | 0.00 | 0.00 | 86 | 1012.9 |
| 20260507030903 | 83 | 202 | 2.0 | 3.0 | 0.00 | 0.00 | 0.00 | 86 | 1012.7 |
| 20260507030400 | 83 | 329 | 2.0 | 3.0 | 0.00 | 0.00 | 0.00 | 86 | 1013.0 |
| 20260507025857 | 83 | 317 | 5.0 | 7.0 | 0.00 | 0.00 | 0.00 | 86 | 1013.0 |
| 20260507025354 | 83 | 290 | 3.0 | 4.0 | 0.00 | 0.00 | 0.00 | 86 | 1012.8 |
| 20260507024852 | 83 | 20 | 6.0 | 10.0 | 0.00 | 0.00 | 0.00 | 85 | 1012.8 |
| 20260507024349 | 83 | 249 | 1.0 | 2.0 | 0.00 | 0.00 | 0.00 | 85 | 1012.8 |
| 20260507023845 | 83 | 63 | 3.0 | 6.0 | 0.00 | 0.00 | 0.00 | 85 | 1012.7 |
| 20260507023342 | 83 | 259 | 5.0 | 7.0 | 0.00 | 0.00 | 0.00 | 85 | 1012.8 |
| 20260507022839 | 83 | 342 | 4.0 | 6.0 | 0.00 | 0.00 | 0.00 | 85 | 1012.6 |
| 20260507022336 | 83 | 340 | 2.0 | 3.0 | 0.00 | 0.00 | 0.00 | 85 | 1012.7 |
| 20260507021831 | 83 | 244 | 3.0 | 3.0 | 0.00 | 0.00 | 0.00 | 85 | 1012.6 |
| 20260507021327 | 83 | 243 | 2.0 | 3.0 | 0.00 | 0.00 | 0.00 | 85 | 1012.5 |
| 20260507020825 | 83 | 269 | 1.0 | 2.0 | 0.00 | 0.00 | 0.00 | 86 | 1012.5 |
| 20260507020322 | 83 | 1 | 4.0 | 4.0 | 0.00 | 0.00 | 0.00 | 86 | 1012.4 |
| 20260507015819 | 83 | 131 | 4.0 | 7.0 | 0.00 | 0.00 | 0.00 | 86 | 1012.5 |
| 20260507015317 | 83 | 279 | 4.0 | 4.0 | 0.00 | 0.00 | 0.00 | 86 | 1012.3 |
| 20260507014813 | 83 | 45 | 2.0 | 3.0 | 0.00 | 0.00 | 0.00 | 86 | 1012.3 |
| 20260507014310 | 83 | 346 | 5.0 | 8.0 | 0.00 | 0.00 | 0.00 | 86 | 1012.4 |
| 20260507013806 | 83 | 331 | 9.0 | 10.0 | 0.00 | 0.00 | 0.00 | 86 | 1012.3 |
| 20260507013303 | 83 | 23 | 2.0 | 3.0 | 0.00 | 0.00 | 0.00 | 86 | 1012.4 |
| 20260507012801 | 83 | 283 | 1.0 | 3.0 | 0.00 | 0.00 | 0.00 | 86 | 1012.2 |
| 20260507012256 | 83 | 168 | 6.0 | 7.0 | 0.00 | 0.00 | 0.00 | 85 | 1012.3 |
| 20260507011754 | 83 | 288 | 5.0 | 8.0 | 0.00 | 0.00 | 0.00 | 85 | 1012.1 |
| 20260507011250 | 83 | 45 | 1.0 | 1.0 | 0.00 | 0.00 | 0.00 | 84 | 1011.9 |
| 20260507010750 | 83 | 219 | 5.0 | 9.0 | 0.00 | 0.00 | 0.00 | 84 | 1011.8 |
| 20260507010246 | 83 | 123 | 1.0 | 1.0 | 0.00 | 0.00 | 0.00 | 84 | 1011.9 |
| 20260507005744 | 83 | 45 | 2.0 | 3.0 | 0.00 | 0.00 | 0.00 | 84 | 1011.8 |
| 20260507005240 | 83 | 241 | 0.0 | 1.0 | 0.00 | 0.00 | 0.00 | 84 | 1011.8 |
| 20260507004736 | 83 | 115 | 1.0 | 1.0 | 0.00 | 0.00 | 0.00 | 84 | 1011.6 |
| 20260507004235 | 83 | 305 | 5.0 | 8.0 | 0.00 | 0.00 | 0.00 | 84 | 1011.5 |
| 20260507003730 | 83 | 2 | 1.0 | 2.0 | 0.00 | 0.00 | 0.00 | 83 | 1011.5 |
| 20260507003226 | 83 | 249 | 2.0 | 3.0 | 0.00 | 0.00 | 0.00 | 83 | 1011.4 |
| 20260507002722 | 83 | 221 | 2.0 | 4.0 | 0.00 | 0.00 | 0.00 | 82 | 1011.6 |
| 20260507002218 | 83 | 347 | 2.0 | 2.0 | 0.00 | 0.00 | 0.00 | 82 | 1011.2 |
| 20260507001715 | 84 | 307 | 1.0 | 2.0 | 0.00 | 0.00 | 0.00 | 81 | 1011.4 |
| 20260507001212 | 84 | 287 | 3.0 | 6.0 | 0.00 | 0.00 | 0.00 | 81 | 1011.5 |
| 20260507000708 | 84 | 118 | 2.0 | 3.0 | 0.00 | 0.00 | 0.00 | 80 | 1011.3 |
| 20260507000205 | 84 | 202 | 1.0 | 2.0 | 0.00 | 0.00 | 0.00 | 81 | 1011.2 |
| 20260506235702 | 84 | 80 | 4.0 | 6.0 | 0.00 | 0.00 | 0.00 | 81 | 1011.3 |
| 20260506235157 | 84 | 67 | 1.0 | 2.0 | 0.00 | 0.00 | 0.00 | 80 | 1011.2 |
| 20260506234654 | 84 | 208 | 4.0 | 7.0 | 0.00 | 0.00 | 0.00 | 80 | 1011.2 |
| 20260506234151 | 84 | 206 | 1.0 | 2.0 | 0.00 | 0.00 | 0.00 | 80 | 1011.1 |
| 20260506233648 | 85 | 168 | 3.0 | 7.0 | 0.00 | 0.00 | 0.00 | 79 | 1011.1 |
| 20260506233145 | 84 | 41 | 4.0 | 4.0 | 0.00 | 0.00 | 0.00 | 80 | 1011.0 |
| 20260506232641 | 85 | 130 | 3.0 | 3.0 | 0.00 | 0.00 | 0.00 | 79 | 1011.0 |
| 20260506232137 | 85 | 297 | 4.0 | 6.0 | 0.00 | 0.00 | 0.00 | 79 | 1010.9 |
| 20260506231634 | 85 | 242 | 1.0 | 2.0 | 0.00 | 0.00 | 0.00 | 78 | 1011.0 |
| 20260506231133 | 85 | 100 | 4.0 | 6.0 | 0.00 | 0.00 | 0.00 | 78 | 1010.9 |
| 20260506230629 | 86 | 293 | 2.0 | 3.0 | 0.00 | 0.00 | 0.00 | 78 | 1010.9 |
| 20260506230126 | 86 | 218 | 1.0 | 1.0 | 0.00 | 0.00 | 0.00 | 77 | 1011.0 |
| 20260506225622 | 86 | 236 | 1.0 | 1.0 | 0.00 | 0.00 | 0.00 | 77 | 1011.0 |
| 20260506225119 | 86 | 241 | 2.0 | 2.0 | 0.00 | 0.00 | 0.00 | 76 | 1011.0 |
| 20260506224616 | 87 | 222 | 1.0 | 1.0 | 0.00 | 0.00 | 0.00 | 75 | 1010.8 |
| 20260506224112 | 87 | 72 | 1.0 | 2.0 | 0.00 | 0.00 | 0.00 | 76 | 1010.9 |
| 20260506223608 | 87 | 317 | 2.0 | 3.0 | 0.00 | 0.00 | 0.00 | 77 | 1011.1 |
| 20260506223105 | 87 | 257 | 1.0 | 1.0 | 0.00 | 0.00 | 0.00 | 76 | 1010.8 |
| 20260506222602 | 87 | 160 | 1.0 | 3.0 | 0.00 | 0.00 | 0.00 | 74 | 1010.8 |
| 20260506222058 | 88 | 347 | 6.0 | 10.0 | 0.00 | 0.00 | 0.00 | 74 | 1011.0 |
| 20260506221556 | 87 | 134 | 3.0 | 4.0 | 0.00 | 0.00 | 0.00 | 74 | 1010.9 |
| 20260506221054 | 87 | 235 | 0.0 | 0.0 | 0.00 | 0.00 | 0.00 | 74 | 1010.9 |
| 20260506220549 | 87 | 303 | 3.0 | 3.0 | 0.00 | 0.00 | 0.00 | 75 | 1011.0 |
| 20260506220045 | 87 | 129 | 5.0 | 7.0 | 0.00 | 0.00 | 0.00 | 75 | 1010.9 |
| 20260506215542 | 88 | 86 | 3.0 | 4.0 | 0.00 | 0.00 | 0.00 | 74 | 1010.7 |
| 20260506215037 | 87 | 252 | 1.0 | 1.0 | 0.00 | 0.00 | 0.00 | 74 | 1010.8 |
| 20260506214535 | 87 | 176 | 5.0 | 9.0 | 0.00 | 0.00 | 0.00 | 75 | 1010.8 |
| 20260506214032 | 87 | 306 | 6.0 | 7.0 | 0.00 | 0.00 | 0.00 | 76 | 1010.8 |
| 20260506213530 | 87 | 251 | 1.0 | 3.0 | 0.00 | 0.00 | 0.00 | 75 | 1010.7 |
| 20260506213027 | 88 | 244 | 8.0 | 13.0 | 0.00 | 0.00 | 0.00 | 74 | 1010.8 |
| 20260506212524 | 87 | 352 | 2.0 | 4.0 | 0.00 | 0.00 | 0.00 | 75 | 1010.8 |
| 20260506212019 | 87 | 263 | 3.0 | 3.0 | 0.00 | 0.00 | 0.00 | 75 | 1010.8 |
| 20260506211515 | 87 | 339 | 2.0 | 6.0 | 0.00 | 0.00 | 0.00 | 75 | 1010.8 |
| 20260506211013 | 87 | 349 | 5.0 | 11.0 | 0.00 | 0.00 | 0.00 | 74 | 1010.9 |
| 20260506210508 | 87 | 240 | 3.0 | 4.0 | 0.00 | 0.00 | 0.00 | 74 | 1011.2 |
| 20260506210005 | 88 | 93 | 2.0 | 3.0 | 0.00 | 0.00 | 0.00 | 73 | 1011.1 |
| 20260506205502 | 88 | 238 | 6.0 | 9.0 | 0.00 | 0.00 | 0.00 | 72 | 1011.2 |
| 20260506204957 | 87 | 279 | 1.0 | 2.0 | 0.00 | 0.00 | 0.00 | 73 | 1011.1 |
| 20260506204456 | 88 | 241 | 2.0 | 3.0 | 0.00 | 0.00 | 0.00 | 72 | 1011.2 |
| 20260506203953 | 88 | 351 | 5.0 | 8.0 | 0.00 | 0.00 | 0.00 | 71 | 1011.2 |
| 20260506203450 | 88 | 211 | 2.0 | 3.0 | 0.00 | 0.00 | 0.00 | 71 | 1011.3 |
| 20260506202947 | 88 | 16 | 4.0 | 7.0 | 0.00 | 0.00 | 0.00 | 69 | 1011.4 |
| 20260506202444 | 88 | 322 | 6.0 | 7.0 | 0.00 | 0.00 | 0.00 | 70 | 1011.2 |
| 20260506201940 | 88 | 300 | 3.0 | 4.0 | 0.00 | 0.00 | 0.00 | 69 | 1011.3 |
| 20260506201438 | 88 | 94 | 4.0 | 7.0 | 0.00 | 0.00 | 0.00 | 69 | 1011.3 |
| 20260506200934 | 88 | 44 | 3.0 | 4.0 | 0.00 | 0.00 | 0.00 | 68 | 1011.4 |
| 20260506200431 | 88 | 58 | 0.0 | 1.0 | 0.00 | 0.00 | 0.00 | 67 | 1011.5 |
| 20260506195927 | 88 | 91 | 2.0 | 2.0 | 0.00 | 0.00 | 0.00 | 66 | 1011.6 |
| 20260506195424 | 89 | 233 | 13.0 | 18.0 | 0.00 | 0.00 | 0.00 | 66 | 1011.5 |
| 20260506194921 | 88 | 316 | 2.0 | 3.0 | 0.00 | 0.00 | 0.00 | 67 | 1011.8 |
| 20260506194418 | 88 | 289 | 2.0 | 3.0 | 0.00 | 0.00 | 0.00 | 67 | 1011.9 |
| 20260506193915 | 89 | 117 | 3.0 | 4.0 | 0.00 | 0.00 | 0.00 | 67 | 1011.9 |
| 20260506193412 | 89 | 200 | 6.0 | 9.0 | 0.00 | 0.00 | 0.00 | 66 | 1011.6 |
| 20260506192908 | 89 | 346 | 9.0 | 13.0 | 0.00 | 0.00 | 0.00 | 66 | 1011.9 |
| 20260506192405 | 89 | 6 | 3.0 | 7.0 | 0.00 | 0.00 | 0.00 | 66 | 1011.9 |
| 20260506191902 | 89 | 331 | 4.0 | 7.0 | 0.00 | 0.00 | 0.00 | 67 | 1011.8 |
| 20260506191358 | 89 | 239 | 6.0 | 9.0 | 0.00 | 0.00 | 0.00 | 68 | 1012.1 |
| 20260506190855 | 89 | 176 | 4.0 | 7.0 | 0.00 | 0.00 | 0.00 | 67 | 1012.1 |
| 20260506190352 | 88 | 293 | 4.0 | 6.0 | 0.00 | 0.00 | 0.00 | 68 | 1012.1 |
| 20260506185849 | 88 | 42 | 2.0 | 3.0 | 0.00 | 0.00 | 0.00 | 67 | 1012.2 |
| 20260506185346 | 89 | 355 | 4.0 | 7.0 | 0.00 | 0.00 | 0.00 | 67 | 1012.4 |
| 20260506184843 | 89 | 344 | 2.0 | 3.0 | 0.00 | 0.00 | 0.00 | 68 | 1012.4 |
| 20260506184340 | 89 | 313 | 1.0 | 2.0 | 0.00 | 0.00 | 0.00 | 67 | 1012.7 |
| 20260506183837 | 89 | 53 | 8.0 | 10.0 | 0.00 | 0.00 | 0.00 | 65 | 1012.7 |
| 20260506183332 | 89 | 296 | 9.0 | 13.0 | 0.00 | 0.00 | 0.00 | 65 | 1012.6 |
| 20260506182830 | 89 | 82 | 4.0 | 7.0 | 0.00 | 0.00 | 0.00 | 66 | 1012.6 |
| 20260506182327 | 89 | 262 | 3.0 | 4.0 | 0.00 | 0.00 | 0.00 | 66 | 1013.0 |
| 20260506181825 | 89 | 161 | 2.0 | 4.0 | 0.00 | 0.00 | 0.00 | 67 | 1013.0 |
| 20260506181322 | 89 | 37 | 1.0 | 2.0 | 0.00 | 0.00 | 0.00 | 67 | 1013.2 |
| 20260506180819 | 89 | 329 | 4.0 | 8.0 | 0.00 | 0.00 | 0.00 | 67 | 1013.1 |
| 20260506180315 | 89 | 139 | 1.0 | 2.0 | 0.00 | 0.00 | 0.00 | 68 | 1013.3 |
| 20260506175812 | 88 | 334 | 3.0 | 7.0 | 0.00 | 0.00 | 0.00 | 68 | 1013.1 |
| 20260506175308 | 88 | 323 | 4.0 | 6.0 | 0.00 | 0.00 | 0.00 | 68 | 1013.2 |
| 20260506174806 | 88 | 305 | 4.0 | 7.0 | 0.00 | 0.00 | 0.00 | 68 | 1013.3 |
| 20260506174303 | 88 | 113 | 4.0 | 7.0 | 0.00 | 0.00 | 0.00 | 70 | 1013.5 |
| 20260506173801 | 88 | 36 | 5.0 | 8.0 | 0.00 | 0.00 | 0.00 | 70 | 1013.5 |
| 20260506173257 | 88 | 273 | 5.0 | 13.0 | 0.00 | 0.00 | 0.00 | 71 | 1013.5 |
| 20260506172754 | 87 | 49 | 4.0 | 7.0 | 0.00 | 0.00 | 0.00 | 73 | 1013.5 |
| 20260506172251 | 87 | 305 | 4.0 | 7.0 | 0.00 | 0.00 | 0.00 | 72 | 1013.5 |